Regional Weather Roundup
Issued by NWS

Home | Current Version | Previous Version | Text Only | Print | Product List | Glossary Off
Versions: 1 2 3 4 5 6 7 8 9 10 11 12 13 14 15 16 17 18 19 20 21 22 23 24 25 26 27 28 29 30 31 32 33 34 35 36 37 38 39 40 41 42 43 44 45 46 47 48 49 50

000
ASUS43 KIND 170959
RWRIN

WEATHER ROUNDUP FOR INDIANA
NATIONAL WEATHER SERVICE INDIANAPOLIS IN
500 AM EST TUE JAN 17 2017

NOTE: "FAIR" INDICATES FEW OR NO CLOUDS BELOW 12,000 FEET WITH NO
SIGNIFICANT WEATHER AND/OR OBSTRUCTIONS TO VISIBILITY.

* - STATION DOES NOT REPORT WEATHER SUCH AS PRECIPITATION OR FOG.

+ - STATION NOT QUALITY CONTROLLED BY THE NATIONAL WEATHER SERVICE.
    USE DATA WITH CAUTION...ESPECIALLY DEWPOINT AND RELATIVE
    HUMIDITY OBSERVATIONS.

INZ001>003-010>013-019-020-171100-
NORTHWEST INDIANA

CITY           SKY/WX    TMP DP  RH WIND       PRES   REMARKS
MONTICELLO +   RAIN      53  51  95 SW6       29.76F
VALPARAISO     LGT RAIN  51  51 100 SW9       29.74F FOG

$$

LMZ046-743>745-171100-
SOUTHERN LAKE MICHIGAN

STATION/POSITION TIME  TEMP    WIND        PRES    WAVE
                       AIR SEA DIR/SP/G            HT
                 (UTC) (F)     (DEG/KT/KT) (MB)    (FT)
BURNS HARBOR     0940   51     220/ 11/ 15 1007.5F

$$

INZ004-005-014>016-021>024-171100-
NORTH CENTRAL INDIANA

CITY           SKY/WX    TMP DP  RH WIND       PRES   REMARKS
GOSHEN         CLOUDY    46  44  93 S9        29.77S FOG
PERU/GRISSOM   LGT RAIN  54  54 100 S10       29.76F
SOUTH BEND     LGT RAIN  45  45 100 CALM      29.76F FOG

$$

INZ006>009-017-018-025>027-171100-
NORTHEAST INDIANA

CITY           SKY/WX    TMP DP  RH WIND       PRES   REMARKS
ANGOLA *+      CLOUDY    37  37 100 SE9       29.79F VSB 1/2
FORT WAYNE     CLOUDY    49  48  97 S12       29.81F FOG
KENDALLVILLE + HVY RAIN  40  40 100 SE9       29.79F VSB 1

$$

INZ028-029-035-036-043>045-051>053-171100-
WEST CENTRAL INDIANA

CITY           SKY/WX    TMP DP  RH WIND       PRES   REMARKS
CRAWFORDSVL +  RAIN      55  55 100 S21G28    29.79S
LAFAYETTE      LGT RAIN  56  55  97 SW12G18   29.77F FOG
TERRE HAUTE    LGT RAIN  54  51  90 W17G28    29.85R

$$

INZ030>032-037>040-046>048-054>057-064-065-171100-
CENTRAL INDIANA

CITY           SKY/WX    TMP DP  RH WIND       PRES   REMARKS
INDIANAPOLIS   CLOUDY    58  55  90 S17       29.81F
-EAGLE CREEK   LGT RAIN  56  54  93 VRB7      29.80F
KOKOMO +       HVY RAIN  54  53  97 S10       29.80F FOG
MT COMFORT *+  CLOUDY    54  54 100 S13       29.82F
SHELBYVILLE    CLOUDY    57  54  89 S18       29.83F

$$

INZ033-034-041-042-049-050-058-059-171100-
EAST CENTRAL INDIANA

CITY           SKY/WX    TMP DP  RH WIND       PRES   REMARKS
MUNCIE         CLOUDY    57  54  89 S12       29.82F

$$

INZ060-061-067>069-081>083-085>088-171100-
SOUTHWEST INDIANA

CITY           SKY/WX    TMP DP  RH WIND       PRES   REMARKS
EVANSVILLE     MOCLDY    60  56  86 SW15      29.90S
HUNTINGBURG *+ CLOUDY    60  57  89 SW15      29.90S

$$

INZ062-063-066-070>080-084-089>092-171100-
SOUTH CENTRAL AND SOUTHEAST INDIANA

CITY           SKY/WX    TMP DP  RH WIND       PRES   REMARKS
BLOOMINGTON    CLOUDY    60  55  83 SW16G25   29.85F
MADISON *+     CLOUDY    57  55  94 S15G22    29.93S

$$




USA.gov is the U.S. government's official web portal to all federal, state and local government web resources and services.